Location: Unspecified
(0.0000°N, 0.0000°E)
Time: 18:10:46
(UTC+00:00)

STARLINK 1049 - Pass Details

Date: 18 January 2020
Orbit: 348 x 351 km, 53.0° (Epoch: 18 January)

Event Time Altitude Azimuth Distance (km) Brightness Sun altitude
Exits shadow 04:17:28 - 178° (S) 1,879 6.7 -26.2°
Reaches altitude 10° 04:19:34 10° 152° (SSE) 1,303 6.2 -25.7°
Maximum altitude 04:20:53 12° 125° (SE) 1,172 6.2 -25.4°
Drops below altitude 10° 04:22:12 10° 98° (E) 1,300 6.5 -25.1°
Sets 04:25:04 0° 66° (ENE) 2,137 7.2 -24.5°
